This is the latest recevied weather packets stored in our database for station/object W4ZHA. If no packets are shown the sender has not sent any weather packets the latest 10 day(s).
| Time | Temp. | Humidity | Pressure | Rain* | Wind** | Luminosity | Snow |
|---|---|---|---|---|---|---|---|
| 1777999920 | 23.89° C | 47% | 1014.8 hPa | 0 mm | - | 379 W/m² | - |
| 1777999616 | 23.89° C | 47% | 1015.1 hPa | 0 mm | - | 436 W/m² | - |
| 1777999313 | 23.89° C | 46% | 1015.1 hPa | 0 mm | - | 387 W/m² | - |
| 1777999011 | 23.89° C | 46% | 1015.1 hPa | 0 mm | - | 204 W/m² | - |
| 1777998709 | 24.44° C | 55% | 1015.1 hPa | 0 mm | - | 451 W/m² | - |
| 1777998406 | 22.78° C | 53% | 1015.5 hPa | 0 mm | - | 417 W/m² | - |
| 1777998104 | 23.89° C | 53% | 1015.1 hPa | 0 mm | - | 302 W/m² | - |
| 1777997801 | 22.78° C | 54% | 1014.8 hPa | 0 mm | - | 374 W/m² | - |
| 1777997498 | 22.78° C | 55% | 1015.1 hPa | 0 mm | - | 331 W/m² | - |
| 1777997196 | 22.22° C | 55% | 1015.1 hPa | 0 mm | - | 358 W/m² | - |
| 1777996893 | 21.67° C | 56% | 1015.1 hPa | 0 mm | - | 401 W/m² | - |
| 1777996589 | 21.67° C | 56% | 1015.5 hPa | 0 mm | - | 371 W/m² | - |
| 1777996285 | 22.78° C | 57% | 1015.5 hPa | 0 mm | - | 366 W/m² | - |
| 1777995981 | 22.78° C | 55% | 1015.5 hPa | 0 mm | - | 329 W/m² | - |
| 1777995678 | 21.67° C | 56% | 1015.5 hPa | 0 mm | - | 348 W/m² | - |
| 1777995375 | 21.67° C | 57% | 1015.5 hPa | 0 mm | - | 302 W/m² | - |
| 1777995072 | 21.67° C | 58% | 1015.5 hPa | 0 mm | - | 305 W/m² | - |
| 1777994769 | 21.67° C | 57% | 1015.5 hPa | 0 mm | - | 171 W/m² | - |
| 1777994464 | 21.11° C | 57% | 1015.5 hPa | 0 mm | - | 262 W/m² | - |
| 1777994160 | 21.11° C | 58% | 1015.5 hPa | 0 mm | - | 301 W/m² | - |
| 1777993858 | 21.67° C | 58% | 1015.5 hPa | 0 mm | - | 340 W/m² | - |
| 1777993554 | 21.11° C | 59% | 1015.5 hPa | 0 mm | - | 267 W/m² | - |
| 1777993250 | 20.56° C | 60% | 1015.5 hPa | 0 mm | - | 164 W/m² | - |
| 1777992946 | 20.56° C | 61% | 1015.1 hPa | 0 mm | - | 174 W/m² | - |
| 1777992645 | 20.56° C | 61% | 1015.5 hPa | 0 mm | - | 222 W/m² | - |
* Rain latest hour (hover to see other rain measurements)
** Current wind speed in m/s (hover to see current wind gust speed)